Tracking 31027 objects as of 19-Jul-2025
HD Live streaming from Space Station
objects crossing your sky now

ATLAS 5 CENTAUR DEB

Track ATLAS 5 CENTAUR DEB now!


NORAD ID: 43999
Int'l Code: 2014-055BE
Perigee: 8,151.7 km
Apogee: 35,098.4 km
Inclination: 19.6 °
Period: 777.0 minutes
Semi major axis: 27996 km
RCS: Unknown
Launch date: September 17, 2014
Source: United States (US)
Launch site: AIR FORCE EASTERN TEST RANGE (AFETR)

Note: This is SATELLITE DEBRIS
Your satellite tracking list
STARLINK-30103
Track 1 satellite(s)




NASA's NSSDC Master Catalog

Two Line Element Set (TLE):
1 43999U 14055BE  25198.22439730 -.00000008  00000-0  00000-0 0  9993
2 43999  19.5652 183.2482 4812591  97.5874 317.5364  1.85335364 46492
Source of the keplerian elements: AFSPC